When you browse on this site, cookies collect data to enhance your experience and personalize the content and advertising you see.
Visit our Privacy Policy to learn more. By continuing to use the site, you agree to this use of cookies and data.
  • In Austria
  • List of Countries
  • For 7 days
  • Water Temperature
  • Weather Map
  • News
  • Weather Widgets
  • user-avatar
    Login

    Hourly Weather Walajapet

    Today, 31 May, Sunday

    Time Temperature Precipitation Wind Pressure Humidity
    00:00 +34°C° 0.2 mm 4 mps 742 mmHg 68%
    01:00 +34°C° 0.2 mm 4 mps 741 mmHg 68%
    02:00 +33°C° 0.2 mm 4 mps 741 mmHg 68%
    03:00 +33°C° 0 mm 4 mps 741 mmHg 69%
    04:00 +32°C° 0 mm 4 mps 741 mmHg 70%
    05:00 +31°C° 0 mm 3 mps 742 mmHg 73%
    06:00 +33°C° 0 mm 3 mps 742 mmHg 69%
    07:00 +34°C° 0 mm 3 mps 742 mmHg 65%
    08:00 +35°C° 0 mm 4 mps 742 mmHg 61%
    09:00 +37°C° 0 mm 3 mps 742 mmHg 53%
    10:00 +38°C° 0 mm 3 mps 742 mmHg 45%
    11:00 +40°C° 0 mm 3 mps 743 mmHg 36%
    12:00 +42°C° 0 mm 3 mps 742 mmHg 33%
    13:00 +43°C° 0 mm 3 mps 741 mmHg 30%
    14:00 +44°C° 0 mm 3 mps 740 mmHg 27%
    15:00 +43°C° 0 mm 4 mps 739 mmHg 31%
    16:00 +42°C° 0 mm 6 mps 739 mmHg 36%
    17:00 +41°C° 0 mm 7 mps 739 mmHg 40%
    18:00 +39°C° 0 mm 6 mps 740 mmHg 48%
    19:00 +36°C° 0 mm 6 mps 740 mmHg 56%
    20:00 +35°C° 0 mm 6 mps 741 mmHg 64%
    21:00 +34°C° 0.3 mm 6 mps 741 mmHg 65%
    22:00 +34°C° 0.3 mm 6 mps 742 mmHg 66%
    23:00 +33°C° 0.3 mm 6 mps 742 mmHg 66%

    Tomorrow, 1 June, Monday

    Time Temperature Precipitation Wind Pressure Humidity
    00:00 +33°C° 0.2 mm 6 mps 742 mmHg 67%
    01:00 +33°C° 0.2 mm 5 mps 741 mmHg 67%
    02:00 +33°C° 0.2 mm 5 mps 741 mmHg 67%
    03:00 +32°C° 0.9 mm 4 mps 741 mmHg 67%
    04:00 +31°C° 0.9 mm 3 mps 742 mmHg 68%
    05:00 +31°C° 0.9 mm 2 mps 742 mmHg 69%
    06:00 +32°C° 0 mm 2 mps 742 mmHg 63%
    07:00 +34°C° 0 mm 3 mps 743 mmHg 58%
    08:00 +35°C° 0 mm 3 mps 743 mmHg 53%
    09:00 +37°C° 0 mm 3 mps 743 mmHg 48%
    10:00 +38°C° 0 mm 3 mps 743 mmHg 43%
    11:00 +40°C° 0 mm 2 mps 743 mmHg 37%
    12:00 +40°C° 0 mm 3 mps 742 mmHg 35%
    13:00 +42°C° 0 mm 3 mps 741 mmHg 32%
    14:00 +43°C° 0 mm 3 mps 740 mmHg 30%
    15:00 +42°C° 0 mm 4 mps 740 mmHg 32%
    16:00 +42°C° 0 mm 5 mps 740 mmHg 34%
    17:00 +41°C° 0 mm 6 mps 740 mmHg 37%
    18:00 +40°C° 0 mm 6 mps 740 mmHg 42%
    19:00 +37°C° 0 mm 5 mps 741 mmHg 48%
    20:00 +36°C° 0 mm 5 mps 741 mmHg 54%
    21:00 +35°C° 0.1 mm 5 mps 741 mmHg 55%
    22:00 +35°C° 0.1 mm 5 mps 742 mmHg 56%
    23:00 +34°C° 0.1 mm 5 mps 742 mmHg 57%

    Day after tomorrow, 2 June, Tuesday

    Time Temperature Precipitation Wind Pressure Humidity
    00:00 +34°C° 0 mm 5 mps 741 mmHg 58%
    01:00 +34°C° 0 mm 5 mps 741 mmHg 59%
    02:00 +33°C° 0 mm 4 mps 740 mmHg 60%
    03:00 +33°C° 0 mm 4 mps 741 mmHg 60%
    04:00 +33°C° 0 mm 3 mps 741 mmHg 61%
    05:00 +32°C° 0 mm 2 mps 741 mmHg 61%
    06:00 +32°C° 0 mm 2 mps 742 mmHg 57%
    07:00 +34°C° 0 mm 2 mps 742 mmHg 54%
    08:00 +35°C° 0 mm 3 mps 743 mmHg 50%
    09:00 +36°C° 0 mm 3 mps 743 mmHg 46%
    10:00 +37°C° 0 mm 3 mps 742 mmHg 42%
    11:00 +39°C° 0 mm 3 mps 742 mmHg 38%
    12:00 +39°C° 0 mm 2 mps 741 mmHg 36%
    13:00 +40°C° 0 mm 2 mps 741 mmHg 34%
    14:00 +41°C° 0 mm 2 mps 740 mmHg 32%
    15:00 +40°C° 0 mm 2 mps 740 mmHg 32%
    16:00 +40°C° 0 mm 2 mps 740 mmHg 32%
    17:00 +40°C° 0 mm 2 mps 740 mmHg 32%
    18:00 +39°C° 0.3 mm 2 mps 740 mmHg 39%
    19:00 +37°C° 0.3 mm 3 mps 741 mmHg 46%
    20:00 +35°C° 0.3 mm 3 mps 741 mmHg 53%
    21:00 +35°C° 0.3 mm 3 mps 741 mmHg 53%
    22:00 +34°C° 0.3 mm 4 mps 742 mmHg 54%
    23:00 +34°C° 0.3 mm 4 mps 742 mmHg 54%

    3 June, Wednesday

    Time Temperature Precipitation Wind Pressure Humidity
    00:00 +33°C° 0.2 mm 4 mps 742 mmHg 56%
    01:00 +33°C° 0.2 mm 4 mps 741 mmHg 58%
    02:00 +32°C° 0.2 mm 4 mps 741 mmHg 60%
    03:00 +31°C° 0.5 mm 3 mps 741 mmHg 60%
    04:00 +30°C° 0.5 mm 3 mps 741 mmHg 61%
    05:00 +30°C° 0.5 mm 2 mps 741 mmHg 62%
    06:00 +31°C° 0 mm 3 mps 742 mmHg 59%
    07:00 +33°C° 0 mm 3 mps 742 mmHg 55%
    08:00 +34°C° 0 mm 3 mps 743 mmHg 52%
    09:00 +35°C° 0 mm 3 mps 742 mmHg 48%
    10:00 +36°C° 0 mm 3 mps 742 mmHg 44%
    11:00 +38°C° 0 mm 2 mps 742 mmHg 40%
    12:00 +38°C° 0 mm 2 mps 741 mmHg 38%
    13:00 +39°C° 0 mm 2 mps 741 mmHg 36%
    14:00 +40°C° 0 mm 2 mps 740 mmHg 33%
    15:00 +40°C° 0 mm 2 mps 740 mmHg 34%
    16:00 +39°C° 0 mm 2 mps 740 mmHg 35%
    17:00 +39°C° 0 mm 2 mps 739 mmHg 35%
    18:00 +38°C° 0.3 mm 3 mps 740 mmHg 40%
    19:00 +36°C° 0.3 mm 4 mps 741 mmHg 45%
    20:00 +35°C° 0.3 mm 5 mps 741 mmHg 50%
    21:00 +34°C° 2.4 mm 4 mps 742 mmHg 56%
    22:00 +32°C° 2.4 mm 4 mps 742 mmHg 61%
    23:00 +30°C° 2.4 mm 4 mps 742 mmHg 66%

    4 June, Thursday

    Time Temperature Precipitation Wind Pressure Humidity
    00:00 +30°C° 0.2 mm 3 mps 741 mmHg 64%
    01:00 +30°C° 0.2 mm 2 mps 741 mmHg 63%
    02:00 +31°C° 0.2 mm 2 mps 741 mmHg 62%
    03:00 +30°C° 0 mm 2 mps 741 mmHg 62%
    04:00 +30°C° 0 mm 3 mps 741 mmHg 62%
    05:00 +30°C° 0 mm 4 mps 741 mmHg 63%
    06:00 +32°C° 0 mm 4 mps 742 mmHg 59%
    07:00 +33°C° 0 mm 4 mps 742 mmHg 55%
    08:00 +34°C° 0 mm 5 mps 743 mmHg 50%
    09:00 +35°C° 0 mm 5 mps 743 mmHg 46%
    10:00 +37°C° 0 mm 4 mps 742 mmHg 42%
    11:00 +38°C° 0 mm 4 mps 742 mmHg 38%
    12:00 +39°C° 0 mm 3 mps 741 mmHg 35%
    13:00 +40°C° 0 mm 3 mps 741 mmHg 33%
    14:00 +40°C° 0 mm 2 mps 740 mmHg 31%
    15:00 +40°C° 0 mm 2 mps 740 mmHg 31%
    16:00 +40°C° 0 mm 2 mps 740 mmHg 32%
    17:00 +40°C° 0 mm 2 mps 740 mmHg 32%
    18:00 +38°C° 0 mm 3 mps 740 mmHg 38%
    19:00 +37°C° 0 mm 3 mps 741 mmHg 45%
    20:00 +36°C° 0 mm 4 mps 741 mmHg 51%
    21:00 +35°C° 0.1 mm 3 mps 742 mmHg 52%
    22:00 +35°C° 0.1 mm 3 mps 742 mmHg 53%
    23:00 +35°C° 0.1 mm 2 mps 742 mmHg 55%

    5 June, Friday

    Time Temperature Precipitation Wind Pressure Humidity
    00:00 +34°C° 0 mm 2 mps 741 mmHg 56%
    01:00 +34°C° 0 mm 2 mps 741 mmHg 57%
    02:00 +32°C° 0 mm 2 mps 740 mmHg 59%
    03:00 +32°C° 0 mm 2 mps 741 mmHg 58%
    04:00 +31°C° 0 mm 2 mps 741 mmHg 58%
    05:00 +31°C° 0 mm 2 mps 741 mmHg 58%
    06:00 +33°C° 0 mm 3 mps 742 mmHg 54%
    07:00 +34°C° 0 mm 3 mps 742 mmHg 49%
    08:00 +35°C° 0 mm 4 mps 743 mmHg 45%
    09:00 +36°C° 0 mm 3 mps 743 mmHg 42%
    10:00 +37°C° 0 mm 3 mps 742 mmHg 39%
    11:00 +39°C° 0 mm 3 mps 742 mmHg 35%
    12:00 +39°C° 0 mm 3 mps 742 mmHg 34%
    13:00 +40°C° 0 mm 2 mps 741 mmHg 32%
    14:00 +40°C° 0 mm 2 mps 740 mmHg 30%
    15:00 +40°C° 0 mm 2 mps 740 mmHg 32%
    16:00 +40°C° 0 mm 2 mps 740 mmHg 33%
    17:00 +39°C° 0 mm 2 mps 740 mmHg 34%
    18:00 +38°C° 0 mm 3 mps 740 mmHg 42%
    19:00 +36°C° 0 mm 4 mps 741 mmHg 50%
    20:00 +35°C° 0 mm 4 mps 741 mmHg 58%
    21:00 +35°C° 0.7 mm 4 mps 741 mmHg 59%
    22:00 +34°C° 0.7 mm 3 mps 741 mmHg 61%
    23:00 +34°C° 0.7 mm 3 mps 742 mmHg 62%
    Show more